This is the latest recevied weather packets stored in our database for station/object KN6ZYR. If no packets are shown the sender has not sent any weather packets the latest 10 day(s).
| Time | Temp. | Humidity | Pressure | Rain* | Wind** | Luminosity | Snow |
|---|---|---|---|---|---|---|---|
| 1777903213 | 7.78° C | 66% | 1014.5 hPa | 0 mm | - | 31 W/m² | - |
| 1777902909 | 7.78° C | 66% | 1014.3 hPa | 0 mm | - | 29 W/m² | - |
| 1777902606 | 7.78° C | 67% | 1014.5 hPa | 0 mm | - | 27 W/m² | - |
| 1777902303 | 7.78° C | 67% | 1014.2 hPa | 0 mm | - | 24 W/m² | - |
| 1777902000 | 7.78° C | 67% | 1014.3 hPa | 0 mm | - | 21 W/m² | - |
| 1777901699 | 7.78° C | 67% | 1014.2 hPa | 0 mm | - | 19 W/m² | - |
| 1777901395 | 7.78° C | 67% | 1014.3 hPa | 0 mm | - | 17 W/m² | - |
| 1777901093 | 7.78° C | 67% | 1014 hPa | 0 mm | - | 15 W/m² | - |
| 1777900790 | 7.22° C | 68% | 1014 hPa | 0 mm | - | 13 W/m² | - |
| 1777900488 | 7.22° C | 69% | 1014.1 hPa | 0 mm | - | 10 W/m² | - |
| 1777900184 | 7.22° C | 69% | 1014.1 hPa | 0 mm | - | 8 W/m² | - |
| 1777899881 | 7.78° C | 68% | 1014.1 hPa | 0 mm | - | 6 W/m² | - |
| 1777899578 | 7.78° C | 66% | 1014.2 hPa | 0 mm | - | 4 W/m² | - |
| 1777899276 | 8.33° C | 63% | 1014.1 hPa | 0 mm | - | 3 W/m² | - |
| 1777898972 | 8.89° C | 63% | 1014.2 hPa | 0 mm | - | 1 W/m² | - |
| 1777898670 | 8.33° C | 63% | 1014 hPa | 0 mm | - | 1 W/m² | - |
| 1777898366 | 8.33° C | 65% | 1013.9 hPa | 0 mm | - | 0 W/m² | - |
| 1777898065 | 7.78° C | 66% | 1014.1 hPa | 0 mm | - | 0 W/m² | - |
| 1777897760 | 7.22° C | 68% | 1014.2 hPa | 0 mm | - | 0 W/m² | - |
| 1777897457 | 7.22° C | 69% | 1014.1 hPa | 0 mm | - | 0 W/m² | - |
| 1777897153 | 7.22° C | 68% | 1014.1 hPa | 0 mm | - | 0 W/m² | - |
| 1777896849 | 7.78° C | 66% | 1014.1 hPa | 0 mm | - | 0 W/m² | - |
| 1777896547 | 8.33° C | 65% | 1014.2 hPa | 0 mm | - | 0 W/m² | - |
| 1777896243 | 8.89° C | 64% | 1014.2 hPa | 0 mm | - | 0 W/m² | - |
| 1777895942 | 8.89° C | 63% | 1014.3 hPa | 0 mm | - | 0 W/m² | - |
* Rain latest hour (hover to see other rain measurements)
** Current wind speed in m/s (hover to see current wind gust speed)